EN

Hourly Weather Moscow

Today, 24 July, Saturday

Time Temperature Precipitation Wind Pressure Humidity
00:00 +14°C° 0 mm 2 mps 744 mmHg 79%
01:00 +14°C° 0 mm 2 mps 744 mmHg 78%
02:00 +14°C° 0 mm 2 mps 744 mmHg 77%
03:00 +14°C° 0 mm 2 mps 744 mmHg 77%
04:00 +14°C° 0 mm 2 mps 745 mmHg 77%
05:00 +14°C° 0 mm 2 mps 745 mmHg 77%
06:00 +15°C° 0 mm 2 mps 745 mmHg 76%
07:00 +15°C° 0 mm 2 mps 745 mmHg 73%
08:00 +14°C° 0 mm 3 mps 746 mmHg 70%
09:00 +16°C° 0 mm 3 mps 746 mmHg 67%
10:00 +18°C° 0 mm 3 mps 746 mmHg 57%
11:00 +19°C° 0 mm 3 mps 746 mmHg 48%
12:00 +21°C° 0 mm 4 mps 747 mmHg 39%
13:00 +21°C° 0 mm 4 mps 747 mmHg 40%
14:00 +20°C° 0 mm 4 mps 747 mmHg 42%
15:00 +20°C° 0 mm 4 mps 747 mmHg 44%
16:00 +20°C° 0 mm 3 mps 748 mmHg 45%
17:00 +20°C° 0 mm 3 mps 748 mmHg 46%
18:00 +19°C° 0 mm 3 mps 749 mmHg 47%
19:00 +18°C° 0 mm 2 mps 749 mmHg 50%
20:00 +17°C° 0 mm 2 mps 749 mmHg 53%
21:00 +16°C° 0 mm 1 mps 749 mmHg 56%
22:00 +16°C° 0 mm 1 mps 750 mmHg 57%
23:00 +16°C° 0 mm 1 mps 750 mmHg 57%

Tomorrow, 25 July, Sunday

Time Temperature Precipitation Wind Pressure Humidity
00:00 +15°C° 0 mm 1 mps 750 mmHg 58%
01:00 +15°C° 0 mm 1 mps 751 mmHg 58%
02:00 +15°C° 0 mm 1 mps 751 mmHg 58%
03:00 +15°C° 0 mm 1 mps 751 mmHg 58%
04:00 +15°C° 0 mm 1 mps 751 mmHg 57%
05:00 +16°C° 0 mm 1 mps 752 mmHg 56%
06:00 +16°C° 0 mm 1 mps 752 mmHg 56%
07:00 +18°C° 0 mm 1 mps 752 mmHg 53%
08:00 +18°C° 0 mm 2 mps 752 mmHg 51%
09:00 +19°C° 0 mm 2 mps 752 mmHg 48%
10:00 +19°C° 0 mm 2 mps 753 mmHg 45%
11:00 +20°C° 0 mm 2 mps 753 mmHg 43%
12:00 +21°C° 0 mm 2 mps 753 mmHg 40%
13:00 +23°C° 0 mm 2 mps 753 mmHg 38%
14:00 +23°C° 0 mm 2 mps 753 mmHg 36%
15:00 +24°C° 0 mm 2 mps 753 mmHg 34%
16:00 +24°C° 0 mm 2 mps 753 mmHg 37%
17:00 +23°C° 0 mm 2 mps 753 mmHg 40%
18:00 +23°C° 0 mm 2 mps 753 mmHg 42%
19:00 +22°C° 0 mm 1 mps 753 mmHg 45%
20:00 +21°C° 0 mm 1 mps 753 mmHg 48%
21:00 +20°C° 0 mm 1 mps 753 mmHg 51%
22:00 +19°C° 0 mm 1 mps 753 mmHg 54%
23:00 +19°C° 0 mm 1 mps 754 mmHg 56%

Day after tomorrow, 26 July, Monday

Time Temperature Precipitation Wind Pressure Humidity
00:00 +18°C° 0 mm 1 mps 754 mmHg 58%
01:00 +16°C° 0 mm 1 mps 754 mmHg 60%
02:00 +16°C° 0 mm 1 mps 754 mmHg 62%
03:00 +15°C° 0 mm 1 mps 754 mmHg 64%
04:00 +16°C° 0 mm 1 mps 754 mmHg 63%
05:00 +16°C° 0 mm 1 mps 754 mmHg 62%
06:00 +18°C° 0 mm 1 mps 755 mmHg 60%
07:00 +19°C° 0 mm 1 mps 755 mmHg 58%
08:00 +20°C° 0 mm 1 mps 755 mmHg 55%
09:00 +21°C° 0 mm 1 mps 755 mmHg 52%
10:00 +22°C° 0 mm 1 mps 755 mmHg 50%
11:00 +23°C° 0 mm 1 mps 755 mmHg 47%
12:00 +24°C° 0 mm 1 mps 755 mmHg 45%
13:00 +25°C° 0 mm 2 mps 755 mmHg 42%
14:00 +26°C° 0 mm 2 mps 755 mmHg 39%
15:00 +27°C° 0 mm 2 mps 755 mmHg 36%
16:00 +27°C° 0 mm 2 mps 754 mmHg 36%
17:00 +27°C° 0 mm 2 mps 754 mmHg 37%
18:00 +27°C° 0 mm 2 mps 754 mmHg 38%
19:00 +25°C° 0 mm 2 mps 754 mmHg 45%
20:00 +23°C° 0 mm 2 mps 754 mmHg 52%
21:00 +20°C° 0 mm 2 mps 754 mmHg 59%
22:00 +20°C° 0 mm 2 mps 754 mmHg 61%
23:00 +19°C° 0 mm 2 mps 754 mmHg 64%

27 July, Tuesday

Time Temperature Precipitation Wind Pressure Humidity
00:00 +18°C° 0 mm 2 mps 754 mmHg 66%
01:00 +18°C° 0 mm 2 mps 754 mmHg 68%
02:00 +18°C° 0 mm 2 mps 754 mmHg 69%
03:00 +17°C° 0 mm 2 mps 754 mmHg 71%
04:00 +17°C° 0 mm 2 mps 754 mmHg 72%
05:00 +18°C° 0 mm 2 mps 754 mmHg 72%
06:00 +19°C° 0 mm 1 mps 754 mmHg 72%
07:00 +20°C° 0 mm 2 mps 754 mmHg 66%
08:00 +23°C° 0 mm 2 mps 754 mmHg 60%
09:00 +25°C° 0 mm 2 mps 754 mmHg 54%
10:00 +26°C° 0 mm 2 mps 754 mmHg 48%
11:00 +28°C° 0 mm 2 mps 754 mmHg 43%
12:00 +29°C° 0 mm 2 mps 754 mmHg 37%
13:00 +28°C° 0 mm 1 mps 754 mmHg 41%
14:00 +27°C° 0 mm 1 mps 753 mmHg 44%
15:00 +27°C° 0 mm 1 mps 753 mmHg 48%
16:00 +27°C° 0 mm 1 mps 753 mmHg 48%
17:00 +27°C° 0 mm 1 mps 753 mmHg 47%
18:00 +27°C° 0 mm 1 mps 753 mmHg 47%
19:00 +25°C° 0 mm 1 mps 752 mmHg 52%
20:00 +24°C° 0 mm 1 mps 752 mmHg 58%
21:00 +23°C° 0 mm 1 mps 752 mmHg 63%
22:00 +22°C° 0 mm 1 mps 752 mmHg 65%
23:00 +22°C° 0 mm 1 mps 752 mmHg 66%

28 July, Wednesday

Time Temperature Precipitation Wind Pressure Humidity
00:00 +21°C° 0 mm 1 mps 752 mmHg 68%
01:00 +20°C° 0 mm 2 mps 752 mmHg 69%
02:00 +19°C° 0 mm 2 mps 752 mmHg 71%
03:00 +19°C° 0 mm 2 mps 752 mmHg 73%
04:00 +19°C° 0 mm 2 mps 751 mmHg 73%
05:00 +19°C° 0 mm 2 mps 751 mmHg 74%
06:00 +19°C° 0 mm 2 mps 751 mmHg 75%
07:00 +21°C° 0 mm 2 mps 751 mmHg 67%
08:00 +24°C° 0 mm 2 mps 751 mmHg 60%
09:00 +26°C° 0 mm 2 mps 750 mmHg 53%
10:00 +27°C° 0 mm 3 mps 750 mmHg 48%
11:00 +29°C° 0 mm 3 mps 750 mmHg 43%
12:00 +30°C° 0 mm 3 mps 749 mmHg 38%
13:00 +30°C° 0 mm 3 mps 749 mmHg 38%
14:00 +30°C° 0 mm 3 mps 748 mmHg 39%
15:00 +29°C° 0 mm 3 mps 748 mmHg 39%
16:00 +29°C° 0 mm 3 mps 748 mmHg 41%
17:00 +28°C° 0 mm 3 mps 747 mmHg 42%
18:00 +28°C° 0 mm 2 mps 747 mmHg 44%
19:00 +27°C° 0 mm 2 mps 747 mmHg 48%
20:00 +26°C° 0 mm 2 mps 746 mmHg 51%
21:00 +24°C° 0 mm 2 mps 746 mmHg 54%
22:00 +24°C° 0 mm 2 mps 746 mmHg 56%
23:00 +23°C° 0 mm 2 mps 745 mmHg 58%

29 July, Thursday

Time Temperature Precipitation Wind Pressure Humidity
00:00 +21°C° 0 mm 2 mps 745 mmHg 59%
01:00 +21°C° 0 mm 2 mps 745 mmHg 63%
02:00 +21°C° 0 mm 2 mps 744 mmHg 66%
03:00 +20°C° 0 mm 2 mps 744 mmHg 70%
04:00 +20°C° 0.1 mm 2 mps 744 mmHg 72%
05:00 +20°C° 0.1 mm 2 mps 743 mmHg 73%
06:00 +20°C° 0.1 mm 2 mps 743 mmHg 75%
07:00 +21°C° 0 mm 3 mps 743 mmHg 70%
08:00 +22°C° 0 mm 3 mps 742 mmHg 65%
09:00 +25°C° 0 mm 4 mps 742 mmHg 60%
10:00 +26°C° 0 mm 4 mps 741 mmHg 55%
11:00 +28°C° 0 mm 4 mps 741 mmHg 49%
12:00 +30°C° 0 mm 4 mps 740 mmHg 44%
13:00 +30°C° 0 mm 4 mps 740 mmHg 44%
14:00 +32°C° 0 mm 5 mps 739 mmHg 44%
15:00 +32°C° 0 mm 5 mps 739 mmHg 44%
16:00 +30°C° 0.1 mm 3 mps 739 mmHg 49%
17:00 +29°C° 0.1 mm 2 mps 738 mmHg 54%
18:00 +28°C° 0.1 mm 1 mps 738 mmHg 59%
19:00 +26°C° 1.6 mm 2 mps 738 mmHg 70%
20:00 +24°C° 1.6 mm 3 mps 738 mmHg 80%
21:00 +22°C° 1.6 mm 4 mps 738 mmHg 91%
22:00 +21°C° 0.6 mm 4 mps 738 mmHg 92%
23:00 +21°C° 0.6 mm 3 mps 738 mmHg 93%
Show more